Ludington, MI

6:10 PM EST on November 12, 2019 (GMT -0500)
Mason County

Weather History for KLDM - June, 2019

Change the Weather History Date:

Sunday, June 9, 2019

  Actual Average Record
Temperature  
Mean Temperature 63 °F -  
Max Temperature 68 °F 73 °F 85 °F (1968)
Min Temperature 58 °F 50 °F 33 °F (1977)
Degree Days  
Heating Degree Days 2    
Growing Degree Days 13 (Base 50)    
Moisture  
Dew Point 59 °F    
Average Humidity 83    
Maximum Humidity 98    
Minimum Humidity 64    
Precipitation  
Precipitation 0.41 in - - ()
Sea Level Pressure  
Sea Level Pressure 30.00 in    
Wind  
Wind Speed 5 mph (ESE)    
Max Wind Speed 10 mph    
Max Gust Speed -    
Visibility 8 miles    
Events Rain    
Averages and records for this station are not official NWS values.
T = Trace of Precipitation, MM = Missing Value Source: NWS Daily Summary

Daily Weather History Graph

Daily Weather History Graph

Search for Another Location

Airport or City:

Astronomy

Jun. 09, 2019 Rise Set
Actual Time 6:03 AM EDT 9:27 PM EDT
Civil Twilight 5:27 AM EDT 10:03 PM EDT
Nautical Twilight 4:40 AM EDT 10:50 PM EDT
Astronomical Twilight 3:41 AM EDT 11:49 PM EDT
Moon 12:48 PM EDT (6/9) 2:00 AM EDT (6/9)
Length of Visible Light 16h 35m
Length of Day
15h 23m
Waxing Crescent, 43% of the Moon is Illuminated
Jun 9
Waxing Crescent
Jun 10
First Quarter
Jun 17
Full
Jun 25
Last Quarter
Jul 2
New

Hourly Weather History & Observations

Time (EDT) Temp. Dew Point Humidity Pressure Visibility Wind Dir Wind Speed Gust Speed Precip Events Conditions
12:15 AM 59.7 °F 52.7 °F 78% 30.04 in 10.0 mi East 3.5 mph - N/A   Clear
12:39 AM 60.1 °F 51.8 °F 74% 30.05 in 10.0 mi East 5.8 mph - N/A   Clear
12:57 AM 59.2 °F 51.8 °F 77% 30.05 in 10.0 mi East 6.9 mph - N/A   Clear
1:15 AM 59.7 °F 52.2 °F 76% 30.05 in 10.0 mi East 5.8 mph - N/A   Clear
1:16 AM 59.9 °F 52.2 °F 76% 30.05 in 10.0 mi East 5.8 mph - N/A   Clear
1:35 AM 61.5 °F 53.1 °F 74% 30.04 in 10.0 mi East 5.8 mph - N/A   Clear
1:36 AM 61.5 °F 53.1 °F 74% 30.04 in 10.0 mi East 5.8 mph - N/A   Clear
1:55 AM 61.3 °F 52.7 °F 73% 30.04 in 10.0 mi East 6.9 mph - N/A   Clear
2:18 AM 61.7 °F 52.7 °F 72% 30.04 in 10.0 mi East 5.8 mph - N/A   Clear
2:35 AM 62.1 °F 52.7 °F 71% 30.04 in 10.0 mi East 5.8 mph - N/A   Clear
2:55 AM 62.6 °F 52.9 °F 70% 30.04 in 10.0 mi East 6.9 mph - N/A   Clear
2:56 AM 62.4 °F 52.9 °F 71% 30.04 in 10.0 mi East 6.9 mph - N/A   Clear
3:15 AM 62.1 °F 52.7 °F 71% 30.04 in 10.0 mi East 5.8 mph - N/A   Clear
3:39 AM 61.9 °F 52.7 °F 72% 30.04 in 10.0 mi East 3.5 mph - N/A   Clear
3:57 AM 61.0 °F 52.7 °F 74% 30.04 in 10.0 mi East 4.6 mph - N/A   Clear
4:15 AM 61.7 °F 52.7 °F 72% 30.03 in 10.0 mi East 4.6 mph - N/A   Clear
4:16 AM 61.7 °F 52.7 °F 72% 30.03 in 10.0 mi East 4.6 mph - N/A   Clear
4:35 AM 59.5 °F 52.5 °F 78% 30.03 in 10.0 mi East 5.8 mph - N/A   Clear
4:55 AM 61.5 °F 52.5 °F 72% 30.03 in 10.0 mi East 5.8 mph - N/A   Clear
5:00 AM 61.0 °F 52.7 °F 74% 30.02 in 10.0 mi East 5.8 mph - N/A   Clear
5:18 AM 60.8 °F 52.3 °F 74% 30.02 in 10.0 mi East 5.8 mph - N/A   Clear
5:36 AM 60.6 °F 52.2 °F 74% 30.02 in 10.0 mi East 5.8 mph - N/A   Clear
5:55 AM 59.9 °F 52.0 °F 75% 30.02 in 10.0 mi East 4.6 mph - N/A   Clear
5:56 AM 59.9 °F 52.0 °F 75% 30.02 in 10.0 mi East 4.6 mph - N/A   Clear
6:15 AM 59.0 °F 51.8 °F 77% 30.02 in 10.0 mi East 4.6 mph - N/A   Scattered Clouds
6:39 AM 58.8 °F 52.3 °F 79% 30.02 in 10.0 mi East 4.6 mph - N/A   Clear
6:57 AM 61.2 °F 52.2 °F 72% 30.02 in 10.0 mi East 5.8 mph - N/A   Clear
7:15 AM 61.5 °F 52.2 °F 71% 30.03 in 10.0 mi East 5.8 mph - N/A   Scattered Clouds
7:35 AM 62.6 °F 52.3 °F 69% 30.03 in 10.0 mi East 6.9 mph - N/A   Mostly Cloudy
7:55 AM 62.8 °F 52.5 °F 69% 30.03 in 10.0 mi East 4.6 mph - N/A   Overcast
7:59 AM 63.0 °F 52.5 °F 69% 30.03 in 10.0 mi East 4.6 mph - N/A   Overcast
8:18 AM 64.0 °F 52.7 °F 67% 30.03 in 10.0 mi ESE 4.6 mph - N/A   Overcast
8:36 AM 65.3 °F 52.7 °F 64% 30.03 in 10.0 mi ESE 9.2 mph - N/A   Overcast
8:55 AM 65.3 °F 52.9 °F 64% 30.03 in 10.0 mi ESE 5.8 mph - N/A   Overcast
9:15 AM 65.1 °F 53.4 °F 66% 30.03 in 10.0 mi SE 6.9 mph - N/A   Overcast
9:39 AM 65.3 °F 53.1 °F 65% 30.03 in 10.0 mi SE 6.9 mph - N/A   Overcast
9:57 AM 65.7 °F 53.8 °F 65% 30.03 in 10.0 mi ESE 9.2 mph - N/A   Light Drizzle
10:15 AM 66.2 °F 54.5 °F 66% 30.02 in 10.0 mi ESE 10.4 mph - N/A   Overcast
10:16 AM 66.2 °F 54.5 °F 66% 30.02 in 10.0 mi ESE 9.2 mph - N/A   Overcast
10:35 AM 66.2 °F 55.8 °F 69% 30.02 in 10.0 mi ESE 4.6 mph - N/A   Overcast
10:55 AM 67.3 °F 56.8 °F 69% 30.02 in 10.0 mi SE 6.9 mph - N/A   Overcast
11:18 AM 67.8 °F 58.5 °F 72% 30.02 in 10.0 mi ESE 5.8 mph - N/A   Overcast
11:36 AM 67.6 °F 59.9 °F 76% 30.02 in 10.0 mi ESE 8.1 mph - N/A   Overcast
11:55 AM 67.8 °F 59.4 °F 74% 30.02 in 10.0 mi SE 3.5 mph - N/A   Overcast
11:56 AM 67.6 °F 59.4 °F 75% 30.02 in 10.0 mi SE 4.6 mph - N/A   Overcast
12:15 PM 67.8 °F 59.7 °F 75% 30.02 in 10.0 mi SE 5.8 mph - N/A   Overcast
12:39 PM 68.0 °F 59.9 °F 75% 30.03 in 10.0 mi ESE 3.5 mph - N/A   Overcast
12:57 PM 66.9 °F 60.6 °F 80% 30.02 in 10.0 mi SE 8.1 mph - N/A Rain Light Rain
1:15 PM 65.1 °F 62.2 °F 90% 30.02 in 4.0 mi SE 6.9 mph - 0.03 in Rain Rain
1:35 PM 65.7 °F 63.1 °F 92% 30.01 in 7.0 mi SE 6.9 mph - 0.04 in Rain Rain
1:36 PM 65.7 °F 63.3 °F 92% 30.01 in 7.0 mi SE 6.9 mph - 0.04 in Rain Rain
1:55 PM 65.7 °F 63.3 °F 92% 30.01 in 10.0 mi SE 4.6 mph - 0.05 in Rain Light Rain
2:00 PM 65.8 °F 63.3 °F 92% 30.01 in 10.0 mi ESE 8.1 mph - N/A Rain Light Rain
2:18 PM 65.7 °F 63.1 °F 92% 30.01 in 10.0 mi SSE 5.8 mph - 0.01 in Rain Rain
2:36 PM 65.3 °F 63.0 °F 92% 30.01 in 7.0 mi SE 5.8 mph - 0.01 in Rain Light Rain
2:55 PM 65.3 °F 63.5 °F 94% 30.00 in 5.0 mi ESE 5.8 mph - 0.03 in Rain Rain
3:15 PM 65.3 °F 63.3 °F 93% 30.00 in 10.0 mi SE 4.6 mph - 0.01 in Rain Light Rain
3:16 PM 65.3 °F 63.3 °F 93% 30.00 in 10.0 mi SE 4.6 mph - 0.01 in Rain Light Rain
3:39 PM 65.3 °F 63.7 °F 94% 30.00 in 7.0 mi Calm Calm - 0.02 in Rain Light Rain
3:57 PM 65.7 °F 63.9 °F 94% 30.00 in 7.0 mi ESE 4.6 mph - 0.02 in Rain Light Rain
4:15 PM 65.8 °F 64.4 °F 95% 30.00 in 3.0 mi ESE 3.5 mph - 0.04 in Rain Heavy Rain
4:35 PM 66.2 °F 64.6 °F 94% 29.99 in 5.0 mi SE 4.6 mph - 0.06 in Rain Rain
4:55 PM 66.2 °F 64.8 °F 95% 29.99 in 5.0 mi Calm Calm - 0.08 in Rain Rain
4:59 PM 66.2 °F 64.8 °F 95% 29.99 in 4.0 mi Calm Calm - 0.09 in Rain Rain
5:17 PM 65.8 °F 64.6 °F 96% 29.99 in 3.0 mi Calm Calm - 0.06 in Rain Rain
5:35 PM 66.2 °F 64.9 °F 96% 29.98 in 5.0 mi ESE 3.5 mph - 0.09 in Rain Light Rain
5:55 PM 66.6 °F 65.3 °F 96% 29.97 in 7.0 mi SE 5.8 mph - 0.10 in Rain Rain
5:56 PM 66.6 °F 65.3 °F 96% 29.97 in 7.0 mi SE 4.6 mph - 0.10 in Rain Rain
6:15 PM 66.7 °F 65.3 °F 95% 29.97 in 7.0 mi SE 4.6 mph - 0.01 in Rain Light Rain
6:20 PM 66.7 °F 65.3 °F 95% 29.97 in 7.0 mi ESE 3.5 mph - 0.01 in Rain Rain
6:38 PM 66.6 °F 65.3 °F 96% 29.97 in 5.0 mi SE 3.5 mph - 0.01 in   Light Drizzle
6:56 PM 66.6 °F 65.3 °F 96% 29.96 in 10.0 mi Calm Calm - 0.01 in   Overcast
7:15 PM 66.6 °F 65.3 °F 96% 29.96 in 7.0 mi SE 3.5 mph - N/A   Overcast
7:35 PM 66.4 °F 65.3 °F 96% 29.96 in 3.0 mi SE 3.5 mph - N/A   Overcast
7:36 PM 66.4 °F 65.3 °F 96% 29.96 in 3.0 mi SE 3.5 mph - N/A   Overcast
7:59 PM 66.4 °F 65.3 °F 96% 29.96 in 1.8 mi SE 4.6 mph - N/A   Overcast
8:17 PM 66.2 °F 65.3 °F 97% 29.96 in 4.0 mi Calm Calm - N/A   Overcast
8:35 PM 66.2 °F 65.3 °F 97% 29.95 in 3.0 mi SE 3.5 mph - N/A   Heavy Drizzle
8:55 PM 66.2 °F 65.3 °F 97% 29.95 in 2.5 mi SE 3.5 mph - 0.04 in Rain Heavy Rain
9:15 PM 65.8 °F 64.9 °F 97% 29.95 in 3.0 mi Calm Calm - N/A   Drizzle
9:38 PM 65.8 °F 65.1 °F 98% 29.94 in 3.0 mi Calm Calm - 0.02 in   Heavy Drizzle
9:56 PM 65.8 °F 64.9 °F 97% 29.94 in 2.5 mi Calm Calm - 0.03 in Rain Rain
10:15 PM 65.7 °F 64.9 °F 98% 29.94 in 3.0 mi Calm Calm - 0.01 in   Heavy Drizzle
10:16 PM 65.7 °F 64.9 °F 98% 29.94 in 2.5 mi Calm Calm - 0.01 in   Heavy Drizzle
10:35 PM 65.7 °F 64.9 °F 98% 29.93 in 3.0 mi Calm Calm - 0.02 in   Heavy Drizzle
10:59 PM 65.7 °F 64.8 °F 97% 29.93 in 3.0 mi Calm Calm - 0.03 in   Drizzle
11:17 PM 65.5 °F 64.8 °F 98% 29.92 in 5.0 mi Calm Calm - N/A   Overcast
11:35 PM 65.5 °F 64.8 °F 98% 29.92 in 7.0 mi Calm Calm - 0.01 in Rain Light Rain
11:36 PM 65.5 °F 64.8 °F 98% 29.92 in 7.0 mi Calm Calm - 0.01 in Rain Light Rain
11:55 PM 65.7 °F 64.9 °F 98% 29.92 in 2.5 mi Calm Calm - 0.01 in Rain Rain
11:56 PM 65.7 °F 64.9 °F 98% 29.92 in 2.5 mi Calm Calm - 0.01 in Rain Heavy Rain